This is the latest recevied weather packets stored in our database for station/object KD8OZS. If no packets are shown the sender has not sent any weather packets the latest 10 day(s).
| Time | Temp. | Humidity | Pressure | Rain* | Wind** | Luminosity | Snow |
|---|---|---|---|---|---|---|---|
| 1787952496 | 25° C | 58% | 1013.2 hPa | 0 mm | - | 296 W/m² | - |
| 1787952194 | 25° C | 59% | 1013.2 hPa | 0 mm | - | 291 W/m² | - |
| 1787951891 | 25° C | 60% | 1013.1 hPa | 0 mm | - | 324 W/m² | - |
| 1787951587 | 25° C | 59% | 1013.1 hPa | 0 mm | - | 352 W/m² | - |
| 1787951283 | 25° C | 59% | 1013.1 hPa | 0 mm | - | 351 W/m² | - |
| 1787950979 | 25° C | 58% | 1013.2 hPa | 0 mm | - | 422 W/m² | - |
| 1787950674 | 25.56° C | 58% | 1013.2 hPa | 0 mm | - | 484 W/m² | - |
| 1787950370 | 25.56° C | 57% | 1013.1 hPa | 0 mm | - | 507 W/m² | - |
| 1787950066 | 25° C | 61% | 1013 hPa | 0 mm | - | 523 W/m² | - |
| 1787949761 | 25.56° C | 59% | 1013.1 hPa | 0 mm | - | 473 W/m² | - |
| 1787949460 | 25.56° C | 60% | 1013 hPa | 0 mm | - | 483 W/m² | - |
| 1787949155 | 25.56° C | 63% | 1013.1 hPa | 0 mm | - | 494 W/m² | - |
| 1787948852 | 25.56° C | 60% | 1013.3 hPa | 0 mm | - | 482 W/m² | - |
| 1787948552 | 25.56° C | 59% | 1013.3 hPa | 0 mm | - | 546 W/m² | - |
| 1787948247 | 25.56° C | 59% | 1013.1 hPa | 0 mm | - | 560 W/m² | - |
| 1787947946 | 25° C | 57% | 1013.1 hPa | 0 mm | - | 563 W/m² | - |
| 1787947641 | 25.56° C | 59% | 1013.5 hPa | 0 mm | - | 537 W/m² | - |
| 1787947340 | 25° C | 60% | 1013.5 hPa | 0 mm | - | 551 W/m² | - |
| 1787947039 | 25° C | 62% | 1013.6 hPa | 0 mm | - | 609 W/m² | - |
| 1787946738 | 25.56° C | 59% | 1013.6 hPa | 0 mm | - | 446 W/m² | - |
| 1787946437 | 25.56° C | 61% | 1013.7 hPa | 0 mm | - | 724 W/m² | - |
| 1787946132 | 25° C | 64% | 1013.6 hPa | 0 mm | - | 727 W/m² | - |
| 1787945827 | 25.56° C | 61% | 1013.7 hPa | 0 mm | - | 711 W/m² | - |
| 1787945522 | 25° C | 65% | 1013.8 hPa | 0 mm | - | 702 W/m² | - |
| 1787945217 | 23.89° C | 69% | 1013.7 hPa | 0 mm | - | 708 W/m² | - |
* Rain latest hour (hover to see other rain measurements)
** Current wind speed in m/s (hover to see current wind gust speed)